Regional Weather Roundup
Issued by NWS Charleston, SC

Current Version | Previous Version | Text Only | Print | Product List | Glossary Off
Versions: 1 2 3 4 5 6 7 8 9 10 11 12 13 14 15 16 17 18 19 20 21 22 23 24 25 26 27 28 29 30 31 32 33 34 35 36 37 38 39 40 41 42 43 44 45 46 47 48 49 50
000 ASUS42 KCHS 192312 RWRCHS REGIONAL WEATHER ROUNDUP NATIONAL WEATHER SERVICE CHARLESTON SC 700 PM EDT THU OCT 19 2017 NOTE: "FAIR" INDICATES FEW OR NO CLOUDS BELOW 12,000 FEET WITH NO SIGNIFICANT WEATHER AND/OR OBSTRUCTIONS TO VISIBILITY. NOT ALL STATIONS ARE QUALITY CONTROLLED. USE DATA WITH CAUTION... ESPECIALLY DEWPOINT OBSERVATIONS. SCZ027-030-031-034>040-042>050-200000- ...SOUTHEAST SOUTH CAROLINA... CITY SKY/WX TMP DP RH WIND PRES REMARKS N CHARLESTON CLEAR 67 58 72 N7 30.18S WATERFRONT PRK NOT AVBL JOHNS ISLAND FAIR 70 63 78 NE5 30.18S PINOPOLIS N/A 75 61 60 N7 30.12S MONCKS CORNER FAIR 64 61 88 CALM 30.19S SUMMERVILLE FAIR 66 59 77 CALM 30.20S BEAUFORT MCAS CLEAR 73 62 68 MISG 30.18S BEAUFORT ARPT FAIR 70 61 73 E5 30.18R HILTON HEAD IS CLEAR 72 63 73 NE5 N/A WALTERBORO CLEAR 64 57 77 CALM 30.20S ALLENDALE N/A 70 54 56 CALM N/A ...SOUTHERN MIDLANDS AND PEE DEE... CITY SKY/WX TMP DP RH WIND PRES REMARKS GEORGETOWN FAIR 68 63 83 CALM 30.20R KINGSTREE FAIR 63 59 88 CALM 30.20R ORANGEBURG CLEAR 70 53 54 NE3 30.20S BARNWELL N/A 70 55 60 CALM 30.20S AIKEN FAIR 68 50 52 CALM 30.25R MANNING HAZE 64 54 68 MISG 30.20S VSB<1/4 COLUMBIA PTCLDY 67 55 65 W5 30.20S SUMTER CLEAR 68 52 56 CALM 30.18S FLORENCE CLEAR 66 55 67 N3 30.20S MYRTLE BEACH CLEAR 71 63 75 CALM 30.20R N MYRTLE BEACH CLEAR 68 63 84 CALM 30.18S $$ GAZ063-065-086>088-099>101-113>116-118-119-134>141-150-200000- ...SOUTHEAST GEORGIA... CITY SKY/WX TMP DP RH WIND PRES REMARKS SAVANNAH ARPT PTCLDY 74 58 57 E6 30.18R HUNTER AAF CLEAR 72 60 67 E6 30.16R FORT STEWART CLEAR 71 61 71 NE3 30.16R STATESBORO CLEAR 69 54 57 CALM 30.19S SYLVANIA CLEAR 71 60 68 CALM 30.20R CLAXTON FAIR 69 64 81 CALM 30.18S ...CSRA...CENTRAL AND FAR SOUTHEAST GEORGIA... CITY SKY/WX TMP DP RH WIND PRES REMARKS THOMSON CLEAR 65 52 63 CALM 30.26S AUGUSTA-BUSH CLEAR 65 55 70 CALM 30.20R AUGUSTA-DANIEL CLEAR 75 48 38 E3 30.21S SWAINSBORO FAIR 66 55 68 MISG 30.20S VIDALIA CLEAR 70 57 64 N3 30.19S EASTMAN FAIR 74 40 29 CALM 30.21S HAZLEHURST FAIR 73 47 40 CALM 30.17S ALMA CLEAR 72 61 68 CALM 30.17R WAYCROSS CLEAR 75 57 52 E3 30.17R JESUP NOT AVBL BAXLEY FAIR 70 59 68 CALM 30.17S BRUNSWICK CLEAR 72 59 64 NE7 30.18S SAINT SIMONS PTCLDY 74 61 63 NE9 30.16S $$ SCZ027-028-034-036>038-045-046-048>050-GAZ119-141-200000- ...LAKE AND SUPPLEMENTAL COASTAL OBSERVATIONS... STATION/POSITION TIME TEMP WIND PRES WAVE SWELL AIR SEA DIR/SP/G HT/PER HT/PER/DIR (UTC) (F) (DEG/KT/KT) (MB) (FT/S) (FT/S/D) WINYAH BAY 2145 74 80/ 5 1022.0 LAKE MURRAY 2220 73 210/ 4/ 5 1022.0S ACE BASIN NERRS 2145 78 360/ 1 1022.0 FORT PULASKI 2248 74 74 1022.3R SAPELO ISLAND 2200 76 50/ 9 1021.0 $$ ANZ835-935-AMZ111-154-330-350-352-354-370-450-454-472-200000- ...C-MAN AND BUOY OBSERVATIONS... STATION/POSITION TIME TEMP WIND PRES WAVE SWELL AIR SEA DIR/SP/G HT/PER HT/PER/DIR (UTC) (F) (DEG/KT/KT) (MB) (FT/S) (FT/S/D) BUOY 41004 2250 76 80 30/ 14/ 17 1020.9R 6/ 9 3/110/ 9 BUOY 41008 2250 75 77 60/ 16/ 19 1020.9R 6/ 9 3/120/ 9 FOLLY BEACH CMAN 2200 73 60/ 11/ 12 1022.5R CAPERS NEARSHORE 2208 72 73 60/ 10/ 16 1021.4S FRIPP NEARSHORE 2208 76 70/ 12/ 14 N/A STATION/POSITION TIME TEMP WIND PRES WAVE SWELL AIR SEA DIR/SP/G HT/PER HT/PER/DIR (UTC) (F) (DEG/KT/KT) (MB) (FT/S) (FT/S/D) 5E ST. MARYS GA 2230 77 N/A 6/ 9 FRYING PAN BUOY 2250 75 76 40/ 14/ 17 1021.3R 5/ 9 3/130/ 9 BUOY 41025 2250 74 81 30/ 8/ 10 1021.7R 4/ 8 5/110/ 8 CAPE LOOKOUT NC 2200 72 40/ 9/ 9 1021.6S BUOY 41002 2250 78 80 40/ 17/ 21 1018.4R 6/ 8 3/ 80/ 8 BUOY 41010 NOT AVBL ST AUGUSTINE FL 2300 76 78 40/ 22/ 24 1020.0R $$

USA.gov is the U.S. government's official web portal to all federal, state and local government web resources and services.